Location: ???? ?????
(30.0052°N, 31.2891°E)
Time: 21:59:42
(UTC+00:00)

Cosmos 1271 Rocket - Pass Details

Date: 26 May 2022
Orbit: 495 x 539 km, 81.2° (Epoch: 04 July)

Event Time Altitude Azimuth Distance (km) Brightness Sun altitude
Rises 00:53:49 0° 344° (NNW) 2,629 6.7 -22.7°
Reaches altitude 10° 00:56:00 10° 338° (NNW) 1,747 5.6 -22.4°
Enters shadow 00:58:25 32° 314° (NW) 900 3.8 -22.0°
